Temp
2 3 3 3 4 5 5 6 6 7 8 8 8 8 8 8 8 8 8 9 9 9 9 9 9 10 10 10 10 10 10 10 10 10 9 8 7 7 6 6 6 5 5 5
2 2 3 3 4 4 5 5 6 7 7 7 7 8 8 8 8 8 8 8 8 8 9 9 9 9 10 10 10 9 9 9 9 9 9 8 7 7 6 6 6 5 5 5
2 2 3 4 3 4 4 5 6 6 7 7 7 7 7 8 8 8 8 8 8 9 9 9 9 9 9 9 8 8 8 8 8 8 8 8 7 7 6 6 6 6 6 5
1 2 3 3 3 4 5 5 5 6 6 7 7 6 8 8 8 8 8 8 9 9 9 9 9 9 8 8 8 8 7 7 7 7 7 7 7 7 7 7 6 6 6 6
2 2 3 3 5 4 5 5 6 6 6 6 7 7 8 8 8 8 8 8 8 8 8 8 8 8 8 7 7 7 7 6 6 6 6 6 6 6 6 6 6 6 6 6
2 3 4 4 5 5 5 6 6 6 6 4 7 7 8 9 11 9 8 8 8 8 8 7 7 7 7 7 6 6 6 6 6 6 6 5 5 5 5 5 5 5 5 4
3 3 4 4 5 5 5 5 4 4 3 3 7 7 9 9 10 10 9 8 8 8 7 7 6 6 6 6 6 6 6 6 5 5 5 4 4 4 4 4 4 4 3 3
2 3 3 4 5 5 5 6 5 4 2 4 7 7 9 10 9 9 8 7 7 7 7 6 6 6 6 6 6 6 5 5 4 4 3 3 3 3 3 3 3 2 2 2
3 4 4 5 5 5 5 5 6 6 5 5 7 8 9 9 10 8 8 8 7 6 6 6 5 5 5 6 5 4 4 4 4 3 3 3 2 2 2 2 2 2 1 1
4 4 4 5 5 5 6 6 5 6 4 4 5 7 9 9 9 8 8 8 7 6 6 5 5 5 5 5 4 4 4 3 3 3 2 2 2 1 1 1 0 0 0 0
5 5 4 4 5 5 5 5 5 6 6 3 3 6 8 9 8 8 7 7 6 5 5 4 4 4 4 4 3 3 3 2 2 2 1 1 1 0 -0 -0 -0 -0 -0 -0
5 5 4 4 5 5 5 5 6 6 5 5 5 7 7 7 7 6 6 5 5 4 4 4 4 4 3 3 3 2 2 2 1 1 0 -0 -0 -1 -1 -1 -1 -1 -1 -1
5 5 3 3 4 4 5 5 5 5 5 5 4 7 7 6 6 5 5 4 4 4 4 4 3 3 2 2 2 2 1 1 0 -0 -1 -1 -1 -1 -1 -1 -1 -1 -1 -1
5 5 5 5 5 5 4 5 5 5 5 6 6 7 6 6 6 5 4 4 4 4 4 3 3 2 2 1 1 -0 -1 -1 -1 -1 -1 -2 -2 -2 -2 -2 -2 -2 -2 -2
5 5 5 6 5 5 5 6 6 5 5 6 6 6 6 5 5 5 5 4 3 3 3 3 2 2 1 0 -0 -1 -1 -1 -2 -2 -2 -2 -3 -3 -3 -3 -3 -3 -3 -3
5 5 5 5 5 5 5 5 5 5 5 5 5 6 5 5 4 4 3 3 3 3 2 2 1 1 -0 -1 -1 -2 -2 -2 -3 -3 -3 -3 -3 -4 -4 -4 -4 -5 -4 -4
5 6 5 5 5 5 5 5 5 6 5 5 4 5 4 4 4 3 3 2 2 1 1 1 0 -0 -1 -2 -2 -2 -2 -3 -3 -4 -4 -5 -5 -5 -5 -5 -5 -5 -5 -5
5 5 5 5 4 2 4 5 4 4 4 4 4 4 3 3 3 2 2 1 1 1 -0 -1 -1 -2 -2 -2 -2 -3 -3 -4 -5 -5 -5 -5 -6 -6 -6 -6 -6 -6 -6 -6
4 4 4 3 2 4 4 4 4 3 3 3 3 3 3 3 3 2 1 1 1 0 -1 -2 -2 -2 -3 -3 -3 -4 -4 -5 -5 -6 -6 -6 -6 -7 -7 -7 -7 -7 -8 -8
3 3 3 1 1 0 3 3 3 4 2 3 3 2 2 2 2 2 1 0 -1 -2 -3 -3 -3 -3 -3 -4 -4 -5 -5 -5 -6 -6 -7 -7 -7 -7 -8 -8 -8 -9 -9 -9
2 2 2 1 1 2 2 2 2 2 2 2 2 2 1 0 -1 -1 -1 -2 -2 -3 -3 -3 -4 -4 -5 -5 -5 -5 -6 -6 -7 -7 -7 -8 -8 -8 -8 -9 -9 -10 -10 -10
2 2 1 0 -0 -0 1 1 1 1 1 0 0 -0 -1 -1 -1 -2 -3 -3 -3 -4 -4 -5 -5 -6 -6 -6 -6 -6 -7 -7 -7 -8 -8 -8 -8 -9 -9 -10 -10 -10 -11 -11
1 1 2 2 1 1 1 1 1 0 -0 -0 -0 -1 -1 -2 -3 -3 -3 -4 -6 -6 -5 -6 -6 -6 -6 -6 -7 -7 -7 -8 -8 -9 -9 -9 -9 -10 -10 -11 -11 -12 -12 -12
0 1 0 1 1 1 -0 -0 -0 -0 -0 -0 -1 -1 -2 -2 -3 -3 -4 -5 -5 -6 -7 -7 -7 -6 -7 -7 -8 -8 -9 -9 -9 -9 -9 -10 -10 -11 -11 -12 -12 -12 -13 -13
-0 1 0 1 0 0 -0 -1 -1 -1 -1 -1 -2 -2 -2 -3 -3 -3 -4 -5 -5 -5 -5 -6 -6 -8 -8 -8 -9 -9 -9 -9 -9 -10 -10 -11 -11 -12 -12 -13 -13 -13 -13 -14
1 1 0 1 0 0 0 -1 -1 -2 -2 -2 -2 -3 -3 -3 -3 -4 -4 -5 -5 -6 -6 -7 -8 -8 -8 -8 -9 -9 -10 -10 -11 -11 -11 -12 -12 -13 -13 -13 -13 -13 -14 -14
Height
3091 3091 3096 3107 3113 3120 3124 3125 3122 3121 3121 3120 3118 3118 3119 3119 3118 3119 3121 3121 3121 3121 3122 3121 3120 3119 3118 3117 3116 3115 3113 3112 3110 3108 3106 3104 3103 3101 3100 3099 3098 3097 3094 3092
3090 3089 3099 3109 3114 3118 3121 3121 3120 3119 3119 3119 3117 3116 3116 3115 3115 3116 3117 3117 3119 3120 3119 3119 3118 3118 3117 3115 3112 3111 3109 3109 3108 3106 3103 3100 3098 3097 3095 3093 3091 3089 3087 3086
3081 3089 3099 3104 3109 3114 3117 3118 3118 3121 3119 3117 3114 3112 3111 3112 3113 3114 3114 3115 3116 3117 3117 3117 3117 3116 3114 3112 3110 3109 3108 3106 3104 3102 3100 3098 3095 3093 3090 3088 3086 3084 3082 3080
3084 3088 3096 3101 3106 3112 3112 3115 3118 3119 3118 3116 3114 3110 3106 3108 3110 3111 3111 3112 3113 3114 3115 3115 3114 3113 3111 3110 3108 3106 3105 3103 3101 3099 3097 3094 3092 3090 3087 3085 3082 3080 3076 3074
3080 3085 3094 3100 3103 3110 3111 3115 3116 3116 3115 3112 3112 3112 3103 3104 3105 3106 3108 3109 3110 3112 3112 3112 3111 3110 3109 3107 3106 3105 3102 3100 3097 3095 3092 3090 3087 3084 3081 3079 3076 3074 3070 3066
3083 3088 3096 3099 3104 3108 3112 3113 3114 3114 3113 3110 3106 3108 3098 3098 3099 3103 3105 3106 3107 3109 3110 3110 3109 3108 3107 3105 3104 3102 3100 3097 3094 3091 3087 3084 3081 3078 3075 3072 3070 3067 3063 3059
3080 3085 3092 3098 3102 3105 3108 3110 3112 3115 3112 3105 3101 3103 3094 3096 3098 3100 3102 3104 3105 3107 3108 3107 3107 3106 3104 3102 3101 3099 3096 3092 3088 3085 3081 3079 3076 3073 3070 3067 3064 3061 3057 3054
3075 3088 3089 3092 3096 3099 3103 3105 3105 3107 3106 3099 3101 3097 3092 3092 3093 3098 3100 3102 3104 3106 3105 3106 3106 3103 3101 3100 3098 3095 3091 3087 3083 3080 3077 3074 3071 3068 3064 3061 3057 3053 3049 3045
3077 3081 3084 3088 3092 3098 3099 3100 3103 3102 3099 3099 3095 3092 3090 3090 3091 3094 3096 3099 3103 3104 3104 3104 3102 3099 3096 3095 3092 3088 3085 3081 3078 3075 3072 3069 3066 3063 3060 3056 3051 3047 3042 3037
3072 3078 3082 3086 3090 3094 3095 3099 3101 3100 3099 3099 3092 3090 3087 3088 3089 3092 3095 3098 3101 3101 3101 3099 3097 3093 3091 3089 3087 3083 3079 3076 3073 3070 3067 3064 3061 3057 3053 3048 3043 3038 3033 3027
3071 3074 3080 3083 3084 3088 3092 3092 3094 3095 3094 3095 3095 3088 3087 3086 3088 3091 3095 3098 3098 3098 3097 3094 3091 3088 3086 3083 3080 3077 3074 3071 3068 3065 3062 3058 3054 3049 3044 3039 3034 3029 3023 3018
3067 3070 3075 3080 3082 3086 3088 3090 3091 3090 3092 3093 3092 3089 3086 3086 3088 3092 3094 3095 3094 3092 3090 3087 3085 3083 3081 3079 3076 3072 3068 3064 3061 3058 3054 3050 3046 3041 3036 3030 3024 3018 3011 3006
3066 3068 3074 3081 3083 3082 3082 3084 3086 3087 3090 3088 3089 3087 3086 3086 3088 3090 3090 3090 3090 3088 3085 3082 3080 3079 3076 3073 3069 3066 3062 3059 3055 3051 3047 3042 3036 3030 3024 3018 3012 3006 3000 2994
3066 3067 3069 3070 3071 3074 3078 3080 3082 3084 3084 3083 3082 3084 3085 3085 3086 3085 3084 3084 3082 3080 3079 3077 3076 3073 3070 3066 3063 3059 3055 3051 3048 3044 3038 3032 3026 3019 3012 3006 3000 2994 2988 2982
3064 3065 3067 3069 3070 3072 3074 3076 3077 3077 3079 3080 3079 3080 3084 3085 3082 3079 3078 3077 3077 3076 3075 3073 3070 3066 3062 3058 3055 3052 3048 3044 3039 3033 3027 3021 3014 3008 3002 2996 2990 2984 2978 2972
3063 3064 3066 3068 3069 3070 3071 3072 3073 3074 3074 3074 3075 3075 3077 3076 3074 3073 3072 3072 3072 3071 3069 3067 3063 3060 3056 3053 3049 3045 3040 3034 3029 3023 3017 3011 3005 2999 2993 2986 2980 2973 2968 2962
3061 3062 3064 3065 3066 3067 3068 3067 3067 3067 3069 3071 3071 3072 3070 3070 3069 3069 3067 3066 3065 3064 3062 3060 3057 3054 3049 3045 3040 3036 3031 3025 3018 3012 3005 2999 2993 2988 2982 2976 2970 2963 2957 2951
3061 3063 3064 3064 3065 3067 3062 3062 3063 3064 3065 3066 3067 3066 3065 3064 3064 3063 3063 3061 3060 3058 3055 3052 3049 3045 3041 3036 3030 3025 3020 3013 3007 3002 2996 2990 2984 2979 2974 2967 2961 2954 2947 2940
3057 3059 3060 3061 3061 3060 3058 3059 3060 3060 3062 3061 3060 3060 3060 3059 3059 3060 3058 3057 3055 3051 3048 3046 3042 3038 3032 3026 3022 3017 3011 3004 2999 2994 2988 2982 2976 2970 2965 2958 2952 2944 2936 2929
3053 3055 3058 3058 3059 3057 3054 3054 3055 3056 3057 3055 3056 3056 3055 3056 3054 3055 3053 3050 3046 3043 3041 3037 3033 3028 3023 3019 3013 3007 3000 2995 2990 2985 2979 2973 2967 2961 2955 2948 2941 2933 2926 2918
3048 3051 3053 3055 3055 3052 3051 3052 3052 3056 3058 3051 3052 3052 3052 3050 3049 3045 3042 3040 3038 3035 3031 3027 3024 3020 3015 3008 3003 2997 2991 2986 2981 2975 2970 2964 2958 2951 2944 2938 2930 2923 2916 2907
3046 3048 3049 3052 3054 3050 3046 3047 3050 3049 3047 3047 3046 3045 3043 3041 3039 3036 3033 3030 3027 3025 3022 3018 3013 3009 3002 2997 2991 2986 2981 2976 2972 2967 2962 2956 2950 2943 2935 2928 2921 2914 2905 2896
3044 3043 3043 3045 3044 3042 3042 3042 3042 3042 3041 3041 3039 3037 3035 3032 3030 3026 3023 3021 3018 3015 3011 3007 3003 2998 2992 2986 2981 2977 2972 2968 2963 2959 2954 2948 2941 2933 2926 2918 2910 2902 2894 2884
3037 3038 3037 3039 3039 3039 3038 3038 3038 3037 3036 3034 3033 3030 3028 3025 3021 3019 3016 3012 3008 3004 3000 2995 2992 2988 2983 2978 2974 2969 2964 2960 2956 2951 2944 2937 2930 2922 2915 2908 2900 2891 2882 2873
3033 3032 3031 3031 3034 3036 3034 3033 3031 3030 3029 3027 3025 3022 3020 3017 3014 3010 3006 3003 2998 2994 2990 2987 2982 2978 2974 2970 2967 2961 2957 2952 2947 2940 2934 2927 2919 2911 2904 2898 2890 2882 2875 2863
3026 3025 3026 3024 3028 3028 3028 3027 3025 3023 3021 3018 3017 3015 3012 3008 3004 3001 2998 2994 2990 2986 2982 2979 2975 2971 2967 2963 2960 2955 2948 2942 2936 2930 2923 2916 2907 2900 2893 2885 2879 2876 2866 2857
Wind_Speed
51 41 41 38 30 27 20 11 8 5 10 12 13 13 12 12 18 15 16 20 22 23 21 18 13 8 12 14 15 16 17 18 19 19 20 20 21 21 21 22 23 23 25 27
44 48 39 35 30 28 25 21 9 7 5 7 10 15 18 18 18 16 21 19 15 15 15 9 8 10 12 14 16 18 19 19 18 18 19 20 21 21 21 20 22 25 26 28
33 38 37 27 31 28 23 19 12 10 7 11 15 18 15 17 18 20 19 17 14 11 9 8 8 10 12 13 14 14 14 15 16 16 18 19 20 21 21 20 21 24 28 31
33 33 38 26 32 28 25 18 14 15 14 9 4 6 15 21 17 16 13 11 12 12 10 8 10 11 13 13 11 11 13 18 21 23 23 23 23 23 24 23 23 25 29 31
23 34 34 33 29 22 22 18 18 16 14 12 16 8 9 21 22 21 13 12 13 12 10 11 12 13 12 11 14 17 20 21 23 25 25 26 26 26 27 28 28 28 29 32
15 31 30 29 22 19 21 18 14 11 9 5 20 17 9 21 12 17 14 13 14 13 12 12 12 12 14 18 20 21 22 25 29 27 26 25 25 25 26 27 27 28 30 31
23 32 30 26 25 24 22 16 3 3 3 6 4 14 21 10 8 6 10 10 14 13 12 13 13 15 19 21 21 24 28 32 32 32 28 24 25 25 27 29 31 32 33 35
24 22 32 28 29 27 26 19 6 6 4 3 9 8 9 9 16 18 15 14 13 12 13 13 16 19 20 22 26 29 30 31 28 27 25 24 24 25 27 29 31 33 35 36
25 18 35 24 31 26 25 24 16 5 4 2 6 9 11 8 9 19 20 16 13 12 10 11 17 21 24 28 29 31 33 30 28 26 25 25 25 27 30 32 34 35 37 38
17 13 30 23 28 26 15 23 11 10 3 4 4 6 10 8 12 18 18 15 12 10 12 18 22 27 31 32 34 35 32 30 30 30 29 29 30 33 34 35 37 39 41 42
25 16 22 20 24 29 22 18 10 7 4 4 1 3 1 9 10 10 10 10 9 13 17 20 26 32 34 34 32 32 30 31 32 30 31 33 35 35 37 40 43 45 46 46
20 15 25 21 17 25 24 20 17 6 5 5 1 3 3 4 4 11 8 9 14 15 20 28 33 32 30 32 33 33 34 34 33 33 34 37 39 41 42 45 47 48 48 47
16 9 14 9 12 20 20 25 23 19 10 8 5 3 8 8 15 9 8 10 16 23 31 27 26 27 30 32 35 36 35 35 34 35 40 43 45 47 48 48 47 47 46 45
13 13 13 18 8 17 25 21 20 20 13 16 20 9 9 13 16 16 22 28 28 27 23 22 27 28 33 35 34 34 35 37 40 42 45 48 52 51 49 48 47 45 44 43
16 11 8 11 8 12 15 21 22 25 24 18 19 19 15 20 27 33 34 25 19 18 24 28 26 30 37 37 36 37 39 40 43 45 48 54 55 52 49 48 45 43 41 40
16 13 13 11 10 11 14 16 19 22 23 26 26 28 13 8 12 13 15 19 23 26 26 26 27 36 40 39 37 40 42 45 48 51 54 54 49 46 42 41 40 40 41 41
14 10 12 6 11 12 12 10 18 24 26 19 14 9 14 15 16 18 21 24 24 23 24 28 37 39 38 38 41 42 45 47 50 51 49 45 43 41 40 41 43 44 45 46
12 12 9 5 5 2 6 9 6 5 5 7 10 16 19 20 22 22 21 22 23 27 34 38 36 38 40 41 46 46 49 52 49 44 43 42 40 40 41 43 45 47 48 50
13 12 6 5 8 9 7 6 7 8 7 12 17 18 19 23 27 22 21 23 32 39 37 33 36 39 43 43 44 51 51 46 43 42 39 38 38 39 42 44 47 49 51 52
15 14 12 8 4 5 6 9 8 8 10 18 18 19 15 18 25 29 34 36 32 30 30 33 36 40 44 47 54 51 46 44 43 39 36 37 39 42 45 49 50 52 52 53
14 15 17 14 6 7 11 13 14 8 6 15 16 19 27 31 34 37 36 35 32 32 31 34 37 39 50 48 46 45 43 41 39 37 37 39 42 46 49 52 52 53 54 55
13 12 13 15 8 9 12 12 14 12 14 20 25 30 35 36 39 36 32 35 36 36 38 40 41 47 44 43 41 40 40 40 38 38 40 43 47 50 51 53 54 54 54 54
11 13 8 10 6 11 13 16 17 20 25 29 34 37 40 38 35 37 35 33 32 35 37 40 43 42 44 39 38 39 38 38 38 40 44 47 50 51 52 53 53 53 53 53
18 17 21 19 20 19 18 23 26 30 34 37 39 36 35 32 32 31 31 32 32 34 37 39 40 38 33 33 35 36 36 39 42 45 48 50 52 53 52 51 51 52 52 53
19 20 24 28 25 21 23 28 32 36 35 33 32 30 30 31 32 34 34 34 36 36 35 35 32 29 31 32 32 35 39 43 45 48 50 52 53 52 51 50 50 51 51 52
20 27 28 29 21 23 24 24 26 27 27 27 29 31 32 33 33 33 34 34 34 34 33 31 30 31 32 33 34 38 41 44 47 49 51 51 51 51 50 51 51 49 51 50
Wind_Direction
199 206 206 209 213 217 234 228 282 313 278 263 246 265 286 258 268 253 264 273 278 276 282 288 286 294 304 310 315 314 312 311 311 308 305 305 306 305 301 288 283 285 285 284
204 212 214 214 214 225 228 237 256 299 235 229 252 267 275 259 267 269 278 278 269 273 274 264 277 288 298 302 304 307 310 311 312 314 314 313 312 312 307 296 279 275 281 290
193 199 200 203 208 215 229 223 241 282 237 262 274 271 249 236 248 265 262 259 263 249 238 249 268 281 288 296 302 306 311 320 330 333 331 327 323 321 317 309 298 288 286 289
209 207 194 205 212 216 223 214 246 262 274 270 307 283 228 239 249 252 241 237 226 223 234 256 274 285 293 296 301 315 328 337 337 334 330 326 322 319 316 311 303 295 290 290
189 197 199 204 200 204 232 217 239 249 263 276 252 250 249 234 240 244 236 231 227 233 252 271 281 287 293 310 323 327 331 335 337 334 328 321 316 310 306 303 300 297 295 294
176 191 196 198 196 204 216 218 223 242 264 265 245 221 253 230 246 238 231 232 235 246 262 276 284 297 313 320 321 321 320 320 324 325 321 312 300 295 292 290 289 289 288 288
170 183 183 196 198 199 204 200 202 230 223 226 227 213 246 260 245 211 236 245 247 259 276 284 294 311 318 317 319 319 317 320 321 319 314 306 300 297 294 292 291 290 289 289
164 174 201 201 203 202 205 203 205 206 198 234 183 231 241 248 238 238 239 247 252 267 278 290 308 309 309 313 317 320 323 324 321 319 316 311 306 304 303 302 300 298 297 296
175 186 189 193 201 197 204 218 229 269 255 295 217 241 248 240 215 218 232 248 261 270 294 311 313 310 311 318 323 326 328 327 324 318 312 307 306 304 303 301 301 301 300 300
181 165 186 193 195 206 213 214 209 216 198 242 267 247 244 246 227 217 235 248 275 297 303 310 311 311 315 320 321 320 323 323 320 315 311 308 308 309 308 307 308 308 308 307
181 179 178 194 202 203 202 201 203 201 219 187 258 254 29 232 236 244 242 262 295 291 298 301 305 310 316 320 322 322 321 319 316 313 312 310 311 311 310 309 309 309 309 309
169 183 174 195 206 213 220 222 214 204 207 211 193 264 157 126 183 222 238 291 295 286 295 302 305 311 318 320 321 320 318 317 316 313 311 312 313 312 310 310 311 311 309 307
170 169 140 180 216 209 214 220 225 226 228 210 178 228 198 165 162 195 283 278 277 286 297 301 310 317 320 323 322 318 314 311 308 310 314 315 315 314 313 314 312 311 308 306
188 179 191 193 200 203 211 212 215 221 220 232 232 228 204 206 228 262 288 296 295 293 299 307 311 310 317 323 320 318 316 315 313 311 310 311 314 315 315 315 313 311 309 306
205 202 195 184 185 190 217 220 220 226 233 241 260 263 259 264 270 277 282 283 282 295 304 306 303 308 323 323 316 313 314 312 310 310 310 312 315 315 314 313 311 310 309 309
196 187 183 187 199 215 224 217 222 231 238 249 263 283 299 276 277 281 278 283 298 309 311 306 304 314 319 317 312 312 311 310 310 308 309 312 310 309 309 309 310 311 311 311
199 211 203 219 228 248 268 249 244 248 253 264 268 278 279 277 281 289 297 302 306 310 314 309 309 312 314 310 305 303 308 309 307 307 309 309 309 310 310 311 312 313 313 314
203 204 206 227 219 269 217 213 213 164 187 251 271 271 274 284 288 290 291 294 300 309 313 313 311 311 305 299 296 303 309 310 306 307 306 306 307 308 309 311 313 315 316 317
218 214 205 213 214 267 240 225 206 217 243 259 263 268 273 280 283 280 281 283 297 304 307 304 300 296 291 287 297 305 309 306 305 304 305 305 306 308 311 313 315 317 318 319
223 221 210 202 215 218 203 199 211 240 249 254 263 266 264 273 282 284 290 297 306 306 297 290 285 284 288 298 305 304 305 304 304 304 305 306 308 312 315 318 318 318 317 316
201 208 213 216 231 269 234 232 245 247 234 234 243 261 279 291 298 305 306 310 307 301 284 279 284 291 299 302 303 303 302 303 303 306 307 309 311 314 316 317 316 315 314 315
208 202 207 215 222 246 224 228 227 239 256 274 286 296 300 301 304 305 308 307 304 298 294 292 288 300 307 308 306 304 303 304 304 305 306 308 311 314 315 314 314 313 313 313
215 212 213 207 235 245 236 234 238 256 274 287 295 299 299 301 303 307 308 305 302 294 289 292 295 302 306 306 304 305 304 304 305 305 307 310 311 313 314 313 314 314 315 315
225 232 236 235 236 241 245 249 258 269 277 286 291 291 297 303 306 305 306 307 303 299 295 297 298 302 304 301 302 304 305 306 307 307 309 311 312 314 315 315 315 316 317 318
237 237 237 242 246 249 252 264 268 278 283 285 291 300 304 304 304 306 308 310 309 309 307 306 306 306 303 304 307 308 307 307 309 311 313 313 314 315 315 315 315 317 319 320
246 247 247 254 261 252 260 266 272 280 290 299 301 300 300 303 306 308 308 307 305 304 304 302 304 305 305 307 308 304 306 310 313 314 315 315 316 316 316 316 315 316 317 316